Location: Holbach
(51.5399°N, 10.6036°E)
Time: 19:15:00
(UTC+00:00)

Cosmos 1833 Rocket - Pass Details

Date: 18 September 2020
Orbit: 831 x 841 km, 71.0° (Epoch: 21 October)

Event Time Altitude Azimuth Distance (km) Brightness Sun altitude
Rises 18:14:42 0° 328° (NNW) 3,407 6.6 -8.6°
Reaches altitude 10° 18:18:01 10° 348° (NNW) 2,471 5.5 -9.1°
Maximum altitude 18:21:47 18° 30° (NNE) 1,972 4.5 -9.7°
Drops below altitude 10° 18:25:33 10° 72° (ENE) 2,466 4.6 -10.2°
Enters shadow 18:25:59 - 75° (ENE) 2,575 4.7 -10.3°
